Overview Statistics Trail Chart Weather Telemetry Raw packets
 

This is the latest recevied weather packets stored in our database for station/object KB7STN. If no packets are shown the sender has not sent any weather packets the latest 10 day(s).

<< 98 99 100 101 102 103 104 >>
Time Temp. Humidity Pressure Rain* Wind** Luminosity Snow
1787966799 24.44° C 42% 1016.9 hPa 0 mm - - -
1787966499 24.44° C 42% 1016.4 hPa 0 mm - - -
1787966199 24.44° C 42% 1016.2 hPa 0 mm - - -
1787965899 24.44° C 42% 1016.4 hPa 0 mm - - -
1787965599 24.44° C 42% 1016.4 hPa 0 mm - - -
1787965299 24.44° C 42% 1016.4 hPa 0 mm - - -
1787964999 25° C 41% 1016.4 hPa 0 mm - - -
1787964699 25° C 41% 1016.5 hPa 0 mm - - -
1787964399 25° C 41% 1016.6 hPa 0 mm - - -
1787964099 24.44° C 41% 1016.7 hPa 0.25 mm - - -
1787963799 24.44° C 41% 1016.6 hPa 0.25 mm - - -
1787963499 24.44° C 42% 1016.6 hPa 0.25 mm - - -
1787963199 24.44° C 43% 1016.7 hPa 0.25 mm - - -
1787962899 23.89° C 45% 1016.6 hPa 0.25 mm - - -
1787962599 23.89° C 46% 1016.7 hPa 0.25 mm - - -
1787962299 23.33° C 47% 1016.8 hPa 0.25 mm - - -
1787961999 23.33° C 47% 1016.6 hPa 0.25 mm - - -
1787961699 23.33° C 48% 1016.7 hPa 0.25 mm - - -
1787961399 23.33° C 49% 1016.7 hPa 0.25 mm - - -
1787961099 23.33° C 51% 1016.7 hPa 0.25 mm - - -
1787960799 23.33° C 51% 1016.9 hPa 0.25 mm - - -
1787960499 23.89° C 50% 1016.9 hPa 0 mm - - -
1787960199 23.89° C 52% 1016.8 hPa 0 mm - - -
1787959899 24.44° C 51% 1016.7 hPa 0 mm - - -
1787959599 26.11° C 48% 1016.9 hPa 0 mm - - -

* Rain latest hour (hover to see other rain measurements)
** Current wind speed in m/s (hover to see current wind gust speed)